Theta_e
281 280 280 280 280 281 280 280 280 280 279 279 279 278 278 278 278 278 277 278 277 278 278 278 278 279 279 280 281 281 281 281 280 282 285 286 286 287 288 290 290 290 291
280 280 281 281 280 280 279 279 279 278 278 278 277 277 277 277 277 276 276 277 277 276 277 277 277 278 278 279 279 279 279 280 280 278 281 283 283 285 286 287 287 288 288
280 280 280 280 279 279 279 279 278 277 276 276 275 275 274 275 274 275 276 276 276 276 276 276 276 277 277 278 278 278 279 279 279 279 278 282 282 284 284 285 286 287 287
280 279 280 279 279 279 278 277 276 275 274 274 274 273 273 273 273 274 275 275 275 275 275 275 275 275 275 276 277 278 278 278 278 278 278 278 280 282 283 282 283 285 285
279 279 279 279 278 277 275 274 273 273 272 272 272 271 271 272 273 274 274 274 273 273 273 273 273 274 275 275 275 275 276 276 277 277 276 277 278 278 279 282 281 283 285
279 279 279 277 275 274 273 272 272 271 271 270 270 269 269 270 273 275 275 273 272 271 271 272 272 272 273 274 275 276 276 274 273 274 275 275 276 276 278 278 279 279 278
276 275 275 274 273 272 271 270 270 269 269 268 268 268 268 268 272 275 274 273 272 271 270 270 270 271 271 271 273 274 274 275 276 275 273 273 274 275 276 275 276 277 278
276 274 273 272 271 270 269 268 268 268 267 267 266 267 267 267 272 273 274 272 271 271 270 270 270 270 271 272 272 272 273 274 274 275 275 275 276 277 277 277 276 277 278
275 274 272 271 268 268 266 266 266 265 265 265 267 265 264 265 269 272 272 271 270 270 270 271 271 271 273 275 274 273 273 273 276 277 278 278 279 279 279 277 274 273 272
275 274 271 269 265 265 266 265 265 264 265 265 265 264 263 263 267 271 272 271 269 270 271 271 273 274 275 276 274 273 271 272 273 273 274 276 277 277 278 277 276 272 272
272 270 268 267 265 264 263 264 262 261 263 260 262 262 262 263 264 270 272 272 271 271 272 271 272 275 276 277 278 275 274 276 276 275 275 275 275 275 276 276 276 275 272
269 267 265 263 265 263 259 260 259 259 259 258 259 260 263 264 267 270 273 274 275 272 271 272 273 276 278 277 276 276 277 277 275 274 273 273 273 273 274 275 275 275 276
265 263 261 261 262 261 259 260 260 259 259 259 261 261 262 265 266 270 272 274 275 273 274 274 275 274 273 271 272 273 272 270 270 269 270 271 273 274 275 274 275 275 275
262 261 260 260 261 260 262 262 260 260 260 260 260 260 262 264 267 268 269 271 274 274 272 268 268 268 268 268 266 267 267 268 267 267 268 270 271 271 271 272 271 272 271
261 262 262 261 260 262 262 262 262 263 261 257 259 261 262 265 267 272 274 273 273 272 265 262 261 261 261 262 263 263 265 265 265 265 266 266 267 269 269 271 270 270 269
261 261 261 261 261 261 261 261 265 268 270 271 272 272 269 271 272 274 274 274 274 271 260 257 258 259 259 260 260 261 262 263 264 264 265 265 266 266 267 269 271 270 269
261 261 261 261 261 260 259 259 258 261 265 267 269 271 271 271 272 272 273 272 268 265 257 257 257 258 258 259 260 261 261 262 263 264 264 265 266 267 267 268 269 269 269
255 260 259 260 260 259 259 258 257 256 255 257 261 265 267 269 269 271 270 265 257 257 255 256 257 258 259 259 260 261 261 262 263 264 264 265 265 266 267 269 269 268 269
255 257 258 258 258 257 258 257 256 256 255 254 256 259 261 264 267 267 265 256 253 255 256 256 257 258 259 259 260 261 261 262 262 263 264 264 265 266 266 268 269 268 269
253 257 257 256 256 256 256 256 256 255 255 254 254 255 255 255 255 254 254 253 253 254 255 255 256 257 258 259 260 261 261 261 262 264 264 265 265 266 266 267 269 270 269
252 252 255 252 252 253 253 254 255 253 253 253 253 256 263 261 256 255 253 253 252 253 254 254 255 256 257 258 259 260 260 261 262 264 265 265 264 264 266 267 268 269 271
249 249 248 249 252 252 252 253 253 253 253 253 254 255 263 257 256 254 253 253 252 252 253 253 254 255 256 257 258 259 259 260 262 263 265 264 264 265 266 266 267 268 269
248 248 249 248 249 250 250 251 251 251 252 251 252 254 254 254 254 252 252 252 252 252 253 252 253 253 255 256 257 258 258 260 262 263 264 264 263 264 265 265 266 267 268
250 251 251 251 249 249 249 249 250 251 251 252 251 252 253 254 251 250 251 251 251 251 251 252 252 252 253 254 255 256 257 259 262 265 265 264 263 264 264 264 265 266 267
245 249 251 252 250 249 249 249 250 251 251 252 253 253 253 252 250 250 249 249 249 250 251 251 252 252 252 253 253 254 256 259 264 265 263 263 263 262 263 263 263 264 264
248 249 250 253 252 251 251 252 253 254 254 254 254 253 252 250 250 249 249 248 249 250 250 251 251 251 251 253 254 257 260 265 269 264 263 262 261 262 262 262 262 262 263
Wind_Speed
6 6 7 7 6 6 7 6 6 5 5 6 7 7 7 8 8 7 7 7 8 9 8 9 11 10 8 8 8 8 9 9 12 12 11 11 13 11 10 9 8 10 10
7 6 7 7 6 6 6 5 5 6 5 6 6 6 7 8 8 9 9 9 10 12 11 12 13 9 12 12 9 12 10 11 11 17 12 11 14 13 12 12 10 8 9
7 7 6 6 6 5 5 5 5 4 3 3 4 6 7 7 8 8 8 10 11 12 12 13 14 14 13 10 11 12 10 10 11 11 14 10 11 10 12 11 10 11 9
7 7 7 6 5 5 5 4 3 3 4 4 4 4 6 7 7 8 10 11 11 11 12 13 14 14 15 14 13 13 12 11 11 11 12 12 10 10 10 10 10 9 10
8 7 7 6 6 6 4 3 3 3 3 3 4 5 6 6 6 10 11 12 13 14 13 13 13 16 23 20 12 13 14 13 11 11 12 12 10 10 10 9 11 10 11
9 9 7 6 6 5 3 2 2 2 2 3 4 4 5 5 12 15 14 12 12 13 14 14 14 16 17 22 23 25 21 15 15 12 12 13 14 12 11 11 12 12 14
7 6 7 7 6 5 3 3 2 2 2 3 3 5 6 7 13 16 16 10 12 12 13 14 14 12 15 16 20 23 21 23 24 17 16 14 16 14 14 14 15 14 14
7 7 6 7 6 5 4 3 2 1 2 3 4 4 6 7 15 16 17 11 10 12 13 15 16 17 16 17 17 15 16 15 16 13 15 15 15 14 15 15 16 17 16
9 9 8 7 6 5 4 3 2 1 1 1 3 4 6 8 15 17 15 10 11 13 13 15 16 16 21 26 18 16 14 15 17 27 28 29 28 27 22 12 10 12 14
9 9 9 7 6 6 4 4 3 1 1 2 4 5 7 8 15 16 14 8 10 10 12 14 19 20 27 28 17 15 16 16 16 16 15 19 22 18 24 16 10 12 12
7 8 7 6 6 5 4 3 2 1 1 3 5 6 7 8 10 15 16 9 9 10 9 10 10 25 28 30 30 17 18 19 20 17 13 11 10 10 10 12 13 12 13
9 8 7 6 4 5 4 2 1 1 2 3 5 6 5 8 11 13 17 17 18 11 11 11 13 27 27 29 26 30 32 27 11 10 10 11 11 10 10 11 13 14 14
8 7 6 5 5 5 4 3 2 2 2 3 4 6 6 6 7 16 19 20 19 14 11 18 28 29 28 20 24 25 20 9 9 10 11 12 10 11 13 13 13 15 17
8 7 6 5 5 4 3 3 3 3 3 3 4 6 7 7 6 7 8 8 13 10 12 9 16 18 17 16 12 12 9 9 9 10 11 11 11 11 11 11 11 11 12
6 6 5 4 4 4 4 4 4 4 4 4 5 7 6 6 6 15 14 9 8 10 7 6 7 8 9 9 9 9 9 9 9 9 10 11 11 11 12 10 11 11 12
7 5 5 4 4 4 3 3 8 11 13 16 18 14 4 12 18 19 19 19 17 18 3 4 7 8 9 9 9 11 9 10 9 10 11 11 11 12 12 11 10 11 12
5 5 4 4 4 4 3 3 4 4 9 12 13 14 13 15 17 17 17 17 14 10 2 5 6 7 8 9 9 9 11 10 12 10 11 11 11 12 14 12 11 11 13
4 6 4 4 4 4 4 4 3 3 3 5 6 10 14 14 14 15 13 11 4 4 2 5 7 7 8 9 9 9 10 10 10 10 11 11 11 11 12 11 10 12 12
4 3 4 3 3 4 4 4 4 4 5 4 5 7 7 12 14 9 9 0 3 5 5 6 6 7 8 8 9 9 10 10 11 11 11 11 11 11 12 12 11 15 15
3 5 4 4 3 3 4 5 5 5 5 5 5 6 2 2 2 2 2 2 4 5 6 6 7 7 8 8 9 9 10 10 10 10 10 10 10 10 12 12 11 12 11
2 2 4 2 3 3 4 5 5 4 5 5 6 6 13 7 3 4 3 4 4 5 6 6 7 7 8 8 8 9 10 10 10 12 10 10 11 11 11 11 11 11 11
3 3 3 4 3 4 4 4 5 5 6 5 5 5 15 3 4 5 5 5 5 5 6 6 7 7 7 8 9 10 10 11 11 12 11 10 10 11 10 10 10 10 10
3 2 3 3 3 3 3 4 5 5 6 5 5 5 4 5 5 5 6 6 5 6 6 5 6 7 7 7 8 9 10 11 11 12 11 10 10 10 10 9 9 9 8
3 3 4 4 3 4 4 5 5 6 6 6 5 5 5 6 5 6 6 6 5 6 6 6 6 9 9 9 8 9 9 10 10 11 11 9 9 10 8 8 8 9 8
3 3 4 4 4 4 4 5 5 5 5 5 5 5 4 4 5 6 6 5 6 7 8 7 6 9 10 13 13 14 15 19 16 7 6 8 9 11 8 7 8 7 8
4 4 4 4 4 4 5 5 5 5 5 5 5 5 5 4 6 6 5 5 6 7 8 7 8 11 12 11 13 14 16 18 9 7 6 6 6 7 7 8 10 7 8
Wind_Direction
165 149 139 135 126 108 92 83 82 75 52 40 27 16 10 2 359 350 342 334 329 324 323 314 309 306 303 301 299 292 284 278 274 284 285 295 292 284 288 287 276 283 289
173 159 148 137 129 116 105 97 78 59 42 31 17 9 360 356 351 345 336 334 330 326 323 316 310 308 303 301 296 293 289 287 279 285 286 290 286 290 284 280 284 274 272
171 164 160 155 144 121 105 90 76 64 66 41 21 10 359 352 342 339 336 332 326 320 318 316 312 310 301 299 292 288 283 282 280 282 290 287 284 286 284 276 270 273 269
177 177 172 166 151 137 131 120 103 73 53 28 21 9 359 346 339 342 332 327 322 319 316 314 311 307 305 307 301 295 289 287 285 279 282 287 282 285 281 287 280 270 273
181 186 187 162 150 147 137 121 102 76 47 17 14 7 355 340 343 334 331 326 321 318 315 311 307 306 302 298 294 293 291 289 283 278 278 279 282 289 288 300 288 290 275
194 199 172 154 146 146 138 131 122 88 41 21 12 352 341 333 328 330 328 321 317 312 312 312 309 304 302 303 300 298 293 292 286 287 291 288 292 296 301 298 300 298 293
188 176 166 156 155 158 159 190 155 81 29 4 352 344 334 324 322 325 324 317 312 311 309 309 307 303 300 297 297 296 294 288 283 285 285 282 287 290 290 288 288 285 286
185 175 163 161 163 164 182 188 138 134 8 350 334 328 322 313 322 323 321 318 307 303 304 299 295 294 294 298 291 286 281 276 275 274 271 275 275 275 265 265 269 271 272
192 186 175 162 165 174 193 188 161 116 338 308 309 308 307 306 317 321 320 313 302 296 293 289 282 286 289 291 286 286 284 281 274 275 277 279 280 282 282 281 278 284 286
195 183 156 157 169 181 188 193 159 181 280 309 308 304 296 294 306 312 316 298 292 290 284 283 281 288 298 300 295 286 279 274 271 267 264 268 270 270 273 270 269 268 273
143 142 147 156 165 169 181 182 163 261 320 302 302 300 286 282 288 307 304 300 291 289 292 295 289 291 295 292 288 278 269 272 271 267 267 265 260 258 253 246 248 254 261
147 150 155 155 178 162 171 184 216 256 295 306 301 299 277 278 285 294 301 304 309 308 297 294 290 294 310 316 316 310 306 307 305 293 283 277 272 266 263 260 256 253 254
150 152 155 163 178 170 178 197 227 203 261 293 292 296 297 291 280 286 300 304 306 306 306 312 325 320 319 316 307 311 319 318 308 299 293 290 286 285 283 274 266 264 263
153 159 164 178 185 190 198 208 218 243 255 266 279 282 282 286 273 287 281 277 290 310 328 337 329 327 321 316 314 316 313 311 308 300 296 295 292 288 280 278 277 274 273
153 166 177 186 195 202 217 223 233 231 208 218 238 245 262 272 278 291 311 310 315 331 11 346 328 331 323 319 317 313 313 311 306 301 298 297 293 291 282 273 267 268 268
164 175 187 187 193 212 224 262 263 263 269 271 277 275 242 280 301 302 308 316 341 333 24 321 319 319 316 317 318 316 314 310 305 303 298 292 290 287 286 285 272 266 270
164 170 179 191 196 199 213 224 267 291 290 287 283 279 287 290 296 304 309 322 350 345 320 308 308 311 310 310 305 305 306 307 304 299 299 295 295 291 295 281 276 271 272
167 182 185 196 204 208 219 218 219 250 274 298 298 295 285 286 297 300 321 354 332 334 287 299 303 302 302 300 303 303 301 302 303 301 301 298 294 295 299 290 274 273 274
182 199 200 199 192 197 211 223 222 238 250 242 289 290 287 295 295 316 328 288 289 298 299 296 292 291 290 295 298 299 299 300 301 300 303 302 300 302 297 300 280 271 270
205 226 205 207 206 212 216 217 230 233 245 250 249 261 272 293 268 268 269 277 287 289 293 291 294 292 293 295 298 302 304 305 305 304 302 305 304 302 299 300 303 287 272
206 208 229 208 210 218 223 230 232 230 243 243 251 255 265 254 234 271 274 275 267 274 282 287 292 291 292 295 300 304 305 303 305 307 308 311 307 305 303 300 299 299 302
210 224 208 220 228 224 227 228 233 238 240 244 261 267 281 304 280 278 271 263 260 263 265 271 282 283 288 295 303 305 302 304 307 310 316 313 308 307 309 308 309 310 310
203 216 235 243 234 242 249 240 240 238 245 239 248 258 257 262 273 272 274 278 278 284 282 268 279 287 289 287 289 289 292 297 302 303 314 315 313 313 316 316 322 326 330
193 224 246 248 230 231 240 247 239 239 236 241 233 234 250 262 266 271 276 281 289 283 275 278 276 277 289 290 290 289 284 288 296 299 312 314 316 320 324 329 334 341 346
202 218 232 246 247 247 249 246 243 240 235 234 244 240 251 260 266 266 270 272 278 281 282 277 274 277 280 288 289 287 289 299 304 302 326 318 321 324 332 336 343 350 358
221 217 224 235 237 235 236 247 247 243 244 244 240 248 259 257 257 262 267 271 275 276 277 278 275 274 283 288 286 290 301 308 312 357 344 330 332 341 346 354 356 0 4